Time,TemperatureF,DewpointF,PressureIn,WindDirection,WindDirectionDegrees,WindSpeedMPH,WindSpeedGustMPH,Humidity,HourlyPrecipIn,Conditions,Clouds,dailyrainin,SoftwareType,DateUTC
2013-09-20 05:59:00,63.9,61.9,29.95,West,270,0.4,0.4,93,0.00,,,0.00,WUHU216HW,2013-09-20 10:59:00,
2013-09-20 06:00:00,63.9,61.9,29.95,West,270,0.4,0.4,93,0.00,,,0.00,WUHU216HW,2013-09-20 11:00:00,
2013-09-20 06:05:00,63.9,61.9,29.95,West,270,0.4,0.4,93,0.00,,,0.00,WUHU216HW,2013-09-20 11:05:00,
2013-09-20 06:30:00,63.4,61.4,29.97,South,180,1.6,1.6,93,0.00,,,0.00,WUHU216HW,2013-09-20 11:30:00,
2013-09-20 06:31:00,63.2,60.8,29.97,North,0,0.4,0.4,92,0.00,,,0.00,WUHU216HW,2013-09-20 11:31:00,
2013-09-20 06:35:00,63.2,60.8,29.97,North,0,0.4,1.6,92,0.00,,,0.00,WUHU216HW,2013-09-20 11:35:00,
2013-09-20 06:40:00,63.2,60.8,29.97,North,0,0.4,1.6,92,0.00,,,0.00,WUHU216HW,2013-09-20 11:40:00,
2013-09-20 06:59:00,62.5,60.1,29.99,ESE,113,1.1,1.1,92,0.00,,,0.00,WUHU216HW,2013-09-20 11:59:00,
2013-09-20 07:00:00,62.5,60.1,29.99,ESE,113,1.1,1.1,92,0.00,,,0.00,WUHU216HW,2013-09-20 12:00:00,
2013-09-20 07:05:00,62.5,60.1,29.99,ESE,113,1.1,1.1,92,0.00,,,0.00,WUHU216HW,2013-09-20 12:05:00,
2013-09-20 07:30:00,61.6,59.2,30.00,North,0,1.6,1.6,92,0.00,,,0.00,WUHU216HW,2013-09-20 12:30:00,
2013-09-20 07:35:00,61.6,59.2,30.00,North,0,1.6,1.6,92,0.00,,,0.00,WUHU216HW,2013-09-20 12:35:00,
2013-09-20 07:59:00,61.0,58.4,29.96,NNW,338,0.0,0.0,91,0.00,,,0.00,WUHU216HW,2013-09-20 12:59:00,
2013-09-20 08:00:00,61.0,58.4,29.96,NNW,338,0.0,0.0,91,0.00,,,0.00,WUHU216HW,2013-09-20 13:00:00,
2013-09-20 08:05:00,61.0,58.4,29.96,NNW,338,0.0,0.0,91,0.00,,,0.00,WUHU216HW,2013-09-20 13:05:00,
2013-09-20 08:30:00,61.9,59.3,29.97,SE,135,0.0,0.0,91,0.00,,,0.00,WUHU216HW,2013-09-20 13:30:00,
2013-09-20 08:35:00,61.9,59.3,29.97,SE,135,0.0,0.0,91,0.00,,,0.00,WUHU216HW,2013-09-20 13:35:00,
2013-09-20 09:00:00,62.1,59.2,29.99,WSW,248,0.9,0.9,90,0.00,,,0.00,WUHU216HW,2013-09-20 14:00:00,
2013-09-20 09:05:00,62.1,59.2,29.99,WSW,248,0.9,0.9,90,0.00,,,0.00,WUHU216HW,2013-09-20 14:05:00,
2013-09-20 09:10:00,62.1,59.2,29.99,WSW,248,0.9,0.9,90,0.00,,,0.00,WUHU216HW,2013-09-20 14:10:00,
2013-09-20 09:30:00,61.7,58.9,30.00,WNW,293,1.3,1.3,90,0.00,,,0.00,WUHU216HW,2013-09-20 14:30:00,
2013-09-20 09:35:00,61.7,58.9,30.00,WNW,293,1.3,1.3,90,0.00,,,0.00,WUHU216HW,2013-09-20 14:35:00,
2013-09-20 10:00:00,62.3,59.0,30.01,SSW,203,0.4,0.4,89,0.00,,,0.00,WUHU216HW,2013-09-20 15:00:00,
2013-09-20 10:05:00,62.3,59.0,30.01,SSW,203,0.4,0.4,89,0.00,,,0.00,WUHU216HW,2013-09-20 15:05:00,
2013-09-20 10:10:00,62.3,59.0,30.01,SSW,203,0.4,0.4,89,0.00,,,0.00,WUHU216HW,2013-09-20 15:10:00,
2013-09-20 10:30:00,63.0,58.4,30.01,West,270,0.9,0.9,85,0.00,,,0.00,WUHU216HW,2013-09-20 15:30:00,
2013-09-20 10:35:00,63.0,58.4,30.01,West,270,0.9,0.9,85,0.00,,,0.00,WUHU216HW,2013-09-20 15:35:00,
2013-09-20 11:00:00,65.0,59.7,30.01,WSW,248,1.3,1.3,83,0.00,,,0.00,WUHU216HW,2013-09-20 16:00:00,
2013-09-20 11:05:00,65.0,59.7,30.01,WSW,248,1.3,1.3,83,0.00,,,0.00,WUHU216HW,2013-09-20 16:05:00,
2013-09-20 11:10:00,65.0,59.7,30.01,WSW,248,1.3,1.3,83,0.00,,,0.00,WUHU216HW,2013-09-20 16:10:00,
2013-09-20 11:30:00,64.3,58.3,30.01,NW,315,0.4,0.4,81,0.00,,,0.00,WUHU216HW,2013-09-20 16:30:00,
2013-09-20 11:35:00,64.3,58.3,30.01,NW,315,0.4,0.4,81,0.00,,,0.00,WUHU216HW,2013-09-20 16:35:00,
2013-09-20 12:00:00,67.5,59.7,30.00,WNW,293,1.1,1.1,76,0.00,,,0.00,WUHU216HW,2013-09-20 17:00:00,
2013-09-20 12:05:00,67.5,59.7,30.00,WNW,293,1.1,1.1,76,0.00,,,0.00,WUHU216HW,2013-09-20 17:05:00,
2013-09-20 12:10:00,67.5,59.7,30.00,WNW,293,1.1,1.1,76,0.00,,,0.00,WUHU216HW,2013-09-20 17:10:00,
2013-09-20 12:30:00,69.5,58.4,29.99,SSE,158,2.7,2.7,68,0.00,,,0.00,WUHU216HW,2013-09-20 17:30:00,
2013-09-20 12:35:00,69.5,58.4,29.99,SSE,158,2.7,2.7,68,0.00,,,0.00,WUHU216HW,2013-09-20 17:35:00,
2013-09-20 12:59:00,70.9,59.4,29.99,NE,45,2.0,2.0,67,0.00,,,0.00,WUHU216HW,2013-09-20 17:59:00,
2013-09-20 13:00:00,70.9,59.4,29.99,NE,45,2.0,2.0,67,0.00,,,0.00,WUHU216HW,2013-09-20 18:00:00,
2013-09-20 13:05:00,70.9,59.4,29.99,NE,45,2.0,2.0,67,0.00,,,0.00,WUHU216HW,2013-09-20 18:05:00,
2013-09-20 13:30:00,70.2,58.2,29.98,East,90,0.4,0.4,66,0.00,,,0.00,WUHU216HW,2013-09-20 18:30:00,
2013-09-20 13:35:00,70.2,58.2,29.98,East,90,0.4,0.4,66,0.00,,,0.00,WUHU216HW,2013-09-20 18:35:00,
2013-09-20 13:59:00,66.6,56.1,29.99,NNW,338,0.9,0.9,69,0.00,,,0.00,WUHU216HW,2013-09-20 18:59:00,
2013-09-20 14:00:00,66.6,56.1,29.99,NNW,338,0.9,0.9,69,0.00,,,0.00,WUHU216HW,2013-09-20 19:00:00,
2013-09-20 14:05:00,66.6,56.1,29.99,NNW,338,0.9,0.9,69,0.00,,,0.00,WUHU216HW,2013-09-20 19:05:00,
2013-09-20 14:30:00,63.9,55.8,29.99,North,0,0.0,0.0,75,0.00,,,0.00,WUHU216HW,2013-09-20 19:30:00,
2013-09-20 14:35:00,63.9,55.8,29.99,North,0,0.0,0.0,75,0.00,,,0.00,WUHU216HW,2013-09-20 19:35:00,
2013-09-20 14:59:00,62.8,56.5,30.00,ESE,113,0.7,0.7,80,0.00,,,0.00,WUHU216HW,2013-09-20 19:59:00,
2013-09-20 15:00:00,62.8,56.5,30.00,ESE,113,0.7,0.7,80,0.00,,,0.00,WUHU216HW,2013-09-20 20:00:00,
2013-09-20 15:05:00,62.8,56.5,30.00,ESE,113,0.7,0.7,80,0.00,,,0.00,WUHU216HW,2013-09-20 20:05:00,
2013-09-20 15:30:00,60.8,55.4,30.00,NNW,338,0.9,0.9,82,0.01,,,0.00,WUHU216HW,2013-09-20 20:30:00,
2013-09-20 15:35:00,60.8,55.4,30.00,NNW,338,0.9,0.9,82,0.01,,,0.00,WUHU216HW,2013-09-20 20:35:00,
2013-09-20 16:00:00,60.1,54.4,30.01,North,0,0.4,0.4,81,0.01,,,0.01,WUHU216HW,2013-09-20 21:00:00,
2013-09-20 16:05:00,60.1,54.4,30.01,North,0,0.4,0.4,81,0.01,,,0.01,WUHU216HW,2013-09-20 21:05:00,
2013-09-20 16:30:00,60.5,54.0,30.02,NW,315,0.4,0.4,79,0.00,,,0.01,WUHU216HW,2013-09-20 21:30:00,
2013-09-20 16:35:00,60.5,54.0,30.02,NW,315,0.4,0.4,79,0.00,,,0.01,WUHU216HW,2013-09-20 21:35:00,
2013-09-20 17:00:00,60.3,53.1,30.03,North,0,0.4,0.4,77,0.00,,,0.01,WUHU216HW,2013-09-20 22:00:00,
2013-09-20 17:05:00,60.3,53.1,30.03,North,0,0.4,0.4,77,0.00,,,0.01,WUHU216HW,2013-09-20 22:05:00,
2013-09-20 17:30:00,59.0,51.8,30.03,North,0,0.7,0.7,77,0.01,,,0.01,WUHU216HW,2013-09-20 22:30:00,
2013-09-20 17:35:00,59.0,51.8,30.03,North,0,0.7,0.7,77,0.01,,,0.01,WUHU216HW,2013-09-20 22:35:00,
2013-09-20 18:00:00,58.3,51.8,30.03,NNW,338,0.2,0.2,79,0.01,,,0.02,WUHU216HW,2013-09-20 23:00:00,
2013-09-20 18:05:00,58.3,51.8,30.03,NNW,338,0.2,0.2,79,0.01,,,0.02,WUHU216HW,2013-09-20 23:05:00,
2013-09-20 18:30:00,57.8,51.7,30.04,NNW,338,0.0,0.0,80,0.00,,,0.02,WUHU216HW,2013-09-20 23:30:00,
2013-09-20 18:35:00,57.8,51.7,30.04,NNW,338,0.0,0.0,80,0.00,,,0.02,WUHU216HW,2013-09-20 23:35:00,
2013-09-20 18:59:00,56.5,50.0,30.04,WNW,293,1.8,1.8,79,0.00,,,0.02,WUHU216HW,2013-09-20 23:59:00,
2013-09-20 19:00:00,56.5,50.0,30.04,WNW,293,1.8,1.8,79,0.00,,,0.02,WUHU216HW,2013-09-21 00:00:00,
2013-09-20 19:05:00,56.5,50.0,30.04,WNW,293,1.8,1.8,79,0.00,,,0.02,WUHU216HW,2013-09-21 00:05:00,
2013-09-20 19:30:00,55.6,49.1,30.05,WNW,293,1.3,1.3,79,0.00,,,0.02,WUHU216HW,2013-09-21 00:30:00,
2013-09-20 19:35:00,55.6,49.1,30.05,WNW,293,1.3,1.3,79,0.00,,,0.02,WUHU216HW,2013-09-21 00:35:00,
2013-09-20 19:59:00,55.3,48.8,30.06,NW,315,0.0,0.0,79,0.00,,,0.02,WUHU216HW,2013-09-21 00:59:00,
2013-09-20 20:00:00,55.3,48.8,30.06,NW,315,0.0,0.0,79,0.00,,,0.02,WUHU216HW,2013-09-21 01:00:00,
2013-09-20 20:05:00,55.3,48.8,30.06,NW,315,0.0,0.0,79,0.00,,,0.02,WUHU216HW,2013-09-21 01:05:00,
2013-09-20 20:30:00,54.9,48.9,30.07,NNW,338,0.2,0.2,80,0.00,,,0.02,WUHU216HW,2013-09-21 01:30:00,
2013-09-20 20:35:00,54.9,48.9,30.07,NNW,338,0.2,0.2,80,0.00,,,0.02,WUHU216HW,2013-09-21 01:35:00,
2013-09-20 20:59:00,54.0,47.7,30.07,SSW,203,0.0,0.0,79,0.00,,,0.02,WUHU216HW,2013-09-21 01:59:00,
2013-09-20 21:00:00,54.0,47.7,30.07,SSW,203,0.0,0.0,79,0.00,,,0.02,WUHU216HW,2013-09-21 02:00:00,
2013-09-20 21:05:00,54.0,47.7,30.07,SSW,203,0.0,0.0,79,0.00,,,0.02,WUHU216HW,2013-09-21 02:05:00,
2013-09-20 21:30:00,53.5,47.5,30.08,NW,315,0.0,0.0,80,0.01,,,0.02,WUHU216HW,2013-09-21 02:30:00,
2013-09-20 21:35:00,53.5,47.5,30.08,NW,315,0.0,0.0,80,0.01,,,0.02,WUHU216HW,2013-09-21 02:35:00,
2013-09-20 22:00:00,52.2,46.9,30.08,WSW,248,0.0,0.0,82,0.01,,,0.03,WUHU216HW,2013-09-21 03:00:00,
2013-09-20 22:05:00,52.2,46.9,30.08,WSW,248,0.0,0.0,82,0.00,,,0.03,WUHU216HW,2013-09-21 03:05:00,
2013-09-20 22:10:00,52.2,46.9,30.08,WSW,248,0.0,0.0,82,0.00,,,0.03,WUHU216HW,2013-09-21 03:10:00,